STARLINK-32544, 61917

Orbit data source: Space-Track

STARLINK-32544, 61917 is a payload satellite owned by SpaceX/Seattle (US) in LEO that was launched on Mon, 11 Nov 2024 UTC via an FALCON 9 launch vehicle from the Air Force Eastern Test Range (AFETR). Payload-class satellites include a variety of spacecraft equipped with specific instruments for various scientific and technological missions. These include communications satellites like Starlink; space stations such as the ISS; scientific satellites like the Hubble; Earth observation satellites from companies like Planet Labs, Umbra, and HawkEye 360; GPS; miniature CubeSats for education and research; and military/defense satellites.

Loading next visibility...
Identifier
61917, 2024-207F
Orbit
LEO
Country
Flag of USUS
Related business
Manufacturer
SpaceX/Seattle
Mission
Operational Commercial Communications
Bus & Motor
STARLINK V2M, Unknown motor
Mass
730 kg wet, ~700 kg dry
Launch date (UTC)
2024-11-11 (1 year ago)
Launch vehicle
FALCON 9
Launch site
Air Force Eastern Test Range (AFETR)
Object type
Payload
Rocket body
Debris
Shape & HBR
Box + 2 Pan, 17.7 m
Radar Cross Section
33.884 m², Large (>1 m²)

Expand to show TLE details & history
Last TLE update: 16 hours ago

TLE from 16 hours ago
0 STARLINK-32544
1 61917U 24207F   25340.57958906  .00038679  00000-0  14066-2 0  9994
2 61917  42.9980  87.4426 0001332 251.4677 108.6030 15.27605547 60488
Epoch: 2025-12-06T13:54Z
TLE epoch observation values (Epoch: 2025-12-06T13:54:36.494Z)
Latitude
-0.00003°
Longitude
163.18521°
Altitude
483.039 km
Speed
7.626 km/s
True Right ascension
05h 49m 46s
True Declination
0° 00' 00"
Sunlit
Object was in full shadow at epoch
Visualization orbit readout
Latitude
Unknown
Longitude
Unknown
Altitude
Unknown
Speed
Unknown
Apparent Right ascension
Unknown
Apparent Declination
Unknown
Sunlit
N/A
Visualization observer readout
Local Sidereal Time
04:22:26
Azimuth
Unknown
Elevation
Unknown
Doppler factor
Unknown
Orbital elements
Apogee altitude
485.832 km
Perigee altitude
484.004 km
Semi-major axis
6,863.055 km
Eccentricity
0.00013
Inclination
42.998°
RAAN
87.4426°
Arg. of periapsis
251.4677°
True anomaly
108.61747°
Mean anomaly
108.603°
Eccentric anomaly
108.61023°
Mean motion
3.81739 °/min
Orbital period
94.31 mins
BSTAR
0.0014066
Loading maneuver chart data...
Computing Atmospheric mass density...
Loading historical data...
Loading historical data...
Loading historical data...
Loading historical data...
Loading historical data...
Loading historical data...
Loading historical data...

Documentation

Showing up to 5 results
|